Location: Altamira
(10.5079°N, 66.8544°W)
Time: 20:12:23
(UTC+00:00)

OAO 3 Rocket - Pass Details

Date: 08 December 2021
Orbit: 628 x 682 km, 35.0° (Epoch: 17 January)

Event Time Altitude Azimuth Distance (km) Brightness Sun altitude
Rises 23:24:57 0° 233° (SW) 2,897 7.9 -19.0°
Reaches altitude 10° 23:27:17 10° 232° (SW) 1,993 6.8 -19.5°
Maximum altitude 23:31:55 85° 144° (SE) 634 3.0 -20.6°
Enters shadow 23:32:58 54° 61° (ENE) 768 3.1 -20.8°
